Wayne, NE

3:13 AM CDT on July 30, 2016 (GMT -0500)
Wayne Municipal

Weather History for KLCG - March, 2013

Change the Weather History Date:

Monday, March 18, 2013

  Actual Average (KOFK) Record (KOFK)
Temperature  
Mean Temperature 28 °F 38 °F  
Max Temperature 36 °F 50 °F 84 °F (2012)
Min Temperature 19 °F 27 °F -12 °F (1923)
Degree Days  
Heating Degree Days 37 27  
Month to date heating degree days 544  
Since 1 July heating degree days 5637  
Cooling Degree Days 0 0  
Month to date cooling degree days 0  
Year to date cooling degree days 0  
Moisture  
Dew Point 17 °F    
Average Humidity 63    
Maximum Humidity 97    
Minimum Humidity 40    
Precipitation  
Precipitation 0.00 in 0.06 in 1.00 in (1979)
Month to date precipitation 0.87  
Year to date precipitation 2.22  
Snow  
Snow 0.00 in 0.20 in - ()
Month to date snowfall 3.1  
Since 1 July snowfall 25.9  
Snow Depth -    
Sea Level Pressure  
Sea Level Pressure 29.86 in    
Wind  
Wind Speed 19 mph (NW)    
Max Wind Speed 31 mph    
Max Gust Speed 43 mph    
Visibility 9 miles    
Events      
T = Trace of Precipitation, MM = Missing Value Source: NWS Daily Summary

Daily Weather History Graph

Daily Weather History Graph

Search for Another Location

Airport or City:

Trip Planner

Search our weather history database for the weather conditions in past years. The results will help you decide how hot, cold, wet, or windy it might be!

Date:

Astronomy

Mar. 18, 2013 Rise Set
Actual Time 7:34 AM CDT 7:38 PM CDT
Civil Twilight 7:06 AM CDT 8:06 PM CDT
Nautical Twilight 6:33 AM CDT 8:38 PM CDT
Astronomical Twilight 6:00 AM CDT 9:12 PM CDT
Moon 11:28 AM CDT (3/18) 1:44 AM CDT (3/18)
Length of Visible Light 12h 59m
Length of Day
12h 04m
Waxing Crescent, 41% of the Moon is Illuminated
Mar 18
Waxing Crescent
Mar 19
First Quarter
Mar 27
Full
Apr 2
Last Quarter
Apr 10
New

Hourly Weather History & Observations

Time (CDT) Temp. Windchill Dew Point Humidity Pressure Visibility Wind Dir Wind Speed Gust Speed Precip Events Conditions
12:15 AM 35.1 °F 24.1 °F 33.8 °F 95% 29.68 in 5.0 mi South 19.6 mph 26.5 mph N/A   Overcast
12:35 AM 35.1 °F 23.8 °F 33.8 °F 95% 29.70 in 7.0 mi South 20.7 mph 25.3 mph N/A   Overcast
12:55 AM 34.9 °F 24.2 °F 33.8 °F 96% 29.70 in 7.0 mi South 18.4 mph - N/A   Overcast
1:15 AM 34.7 °F 25.1 °F 33.6 °F 96% 29.71 in 7.0 mi SSW 15.0 mph - N/A   Overcast
1:35 AM 34.7 °F 25.1 °F 33.4 °F 95% 29.71 in 7.0 mi SSW 15.0 mph 23.0 mph N/A   Overcast
1:55 AM 34.7 °F 25.5 °F 33.4 °F 95% 29.71 in 7.0 mi South 13.8 mph - N/A   Overcast
2:15 AM 34.7 °F 25.9 °F 33.4 °F 95% 29.71 in 4.0 mi South 12.7 mph - N/A   Overcast
2:35 AM 34.9 °F 26.2 °F 34.0 °F 97% 29.72 in 4.0 mi SSW 12.7 mph - N/A   Light Drizzle
2:55 AM 35.8 °F 27.3 °F 35.1 °F 97% 29.71 in 2.5 mi SW 12.7 mph - N/A   Drizzle
3:15 AM 36.7 °F 27.6 °F 35.6 °F 96% 29.73 in 5.0 mi West 15.0 mph 23.0 mph N/A   Overcast
3:35 AM 36.3 °F 27.5 °F 32.0 °F 84% 29.72 in 10.0 mi WNW 13.8 mph 17.3 mph N/A   Overcast
3:55 AM 35.8 °F 27.3 °F 31.1 °F 83% 29.73 in 10.0 mi WNW 12.7 mph - N/A   Overcast
4:15 AM 35.2 °F 25.8 °F 31.1 °F 85% 29.73 in 10.0 mi WNW 15.0 mph - N/A   Overcast
4:35 AM 34.9 °F 26.2 °F 30.2 °F 83% 29.73 in 10.0 mi WNW 12.7 mph 20.7 mph N/A   Overcast
4:55 AM 33.6 °F 20.8 °F 23.5 °F 67% 29.73 in 10.0 mi WNW 25.3 mph 33.4 mph N/A   Mostly Cloudy
5:15 AM 32.2 °F 22.3 °F 26.4 °F 79% 29.74 in 10.0 mi NW 13.8 mph 23.0 mph N/A   Scattered Clouds
5:35 AM 32.0 °F 21.2 °F 26.2 °F 79% 29.75 in 10.0 mi NW 16.1 mph 21.9 mph N/A   Scattered Clouds
5:55 AM 31.8 °F 18.1 °F 23.9 °F 73% 29.76 in 10.0 mi NW 26.5 mph 38.0 mph N/A   Overcast
6:15 AM 29.7 °F 15.5 °F 17.8 °F 61% 29.77 in 10.0 mi NW 25.3 mph 42.6 mph N/A   Overcast
6:35 AM 28.4 °F 13.5 °F 16.5 °F 61% 29.78 in 10.0 mi NW 26.5 mph 36.8 mph N/A   Overcast
6:55 AM 28.2 °F 14.8 °F 18.3 °F 66% 29.78 in 10.0 mi NW 20.7 mph 31.1 mph N/A   Mostly Cloudy
7:15 AM 27.5 °F 11.8 °F 15.4 °F 61% 29.78 in 10.0 mi NW 28.8 mph 36.8 mph N/A   Scattered Clouds
7:35 AM 26.4 °F 13.2 °F 14.0 °F 59% 29.79 in 10.0 mi NW 18.4 mph 27.6 mph N/A   Clear
7:55 AM 26.1 °F 14.0 °F 15.4 °F 64% 29.79 in 10.0 mi NW 15.0 mph 23.0 mph N/A   Clear
8:15 AM 26.6 °F 14.3 °F 15.6 °F 63% 29.79 in 10.0 mi WNW 16.1 mph 21.9 mph N/A   Clear
8:35 AM 27.5 °F 15.0 °F 16.2 °F 62% 29.79 in 10.0 mi NW 17.3 mph 23.0 mph N/A   Clear
8:55 AM 27.9 °F 12.8 °F 14.9 °F 58% 29.81 in 10.0 mi NW 26.5 mph 33.4 mph N/A   Clear
9:15 AM 25.9 °F 9.6 °F 12.7 °F 58% 29.82 in 10.0 mi NW 28.8 mph 38.0 mph N/A   Clear
9:35 AM 25.5 °F 9.1 °F 11.5 °F 55% 29.84 in 10.0 mi NW 28.8 mph 40.3 mph N/A   Clear
9:55 AM 25.3 °F 9.4 °F 11.1 °F 55% 29.85 in 10.0 mi NW 26.5 mph 36.8 mph N/A   Clear
10:15 AM 25.7 °F 9.6 °F 11.3 °F 55% 29.86 in 10.0 mi NW 27.6 mph 33.4 mph N/A   Clear
10:35 AM 25.7 °F 10.2 °F 11.5 °F 55% 29.86 in 10.0 mi NW 25.3 mph 35.7 mph N/A   Clear
10:55 AM 26.1 °F 10.4 °F 12.0 °F 55% 29.88 in 10.0 mi NW 26.5 mph 33.4 mph N/A   Clear
11:15 AM 25.7 °F 9.3 °F 10.9 °F 54% 29.88 in 10.0 mi NW 28.8 mph 35.7 mph N/A   Clear
11:35 AM 26.1 °F 11.6 °F 11.5 °F 54% 29.89 in 10.0 mi NW 21.9 mph 29.9 mph N/A   Mostly Cloudy
11:55 AM 25.9 °F 11.1 °F 10.8 °F 53% 29.90 in 10.0 mi NW 23.0 mph 33.4 mph N/A   Mostly Cloudy
12:15 PM 26.1 °F 10.4 °F 9.9 °F 50% 29.90 in 10.0 mi NW 26.5 mph 38.0 mph N/A   Scattered Clouds
12:35 PM 27.0 °F 11.6 °F 10.8 °F 51% 29.91 in 10.0 mi NW 26.5 mph 38.0 mph N/A   Scattered Clouds
12:55 PM 27.0 °F 10.8 °F 9.9 °F 49% 29.91 in 10.0 mi NW 29.9 mph 39.1 mph N/A   Scattered Clouds
1:15 PM 27.5 °F 11.3 °F 11.3 °F 51% 29.91 in 10.0 mi NW 31.1 mph 40.3 mph N/A   Scattered Clouds
1:35 PM 27.5 °F 12.0 °F 10.9 °F 50% 29.92 in 10.0 mi NW 27.6 mph 39.1 mph N/A   Scattered Clouds
1:55 PM 27.5 °F 13.2 °F 10.9 °F 50% 29.93 in 10.0 mi NW 23.0 mph 35.7 mph N/A   Mostly Cloudy
2:15 PM 28.6 °F 14.3 °F 11.8 °F 50% 29.92 in 10.0 mi NW 24.2 mph 33.4 mph N/A   Mostly Cloudy
2:35 PM 28.4 °F 13.8 °F 11.8 °F 50% 29.92 in 10.0 mi NW 25.3 mph 33.4 mph N/A   Scattered Clouds
2:55 PM 29.7 °F 15.2 °F 11.7 °F 47% 29.92 in 10.0 mi NW 26.5 mph 36.8 mph N/A   Scattered Clouds
3:15 PM 29.3 °F 15.3 °F 11.8 °F 48% 29.91 in 10.0 mi NW 24.2 mph 32.2 mph N/A   Scattered Clouds
3:35 PM 31.1 °F 17.4 °F 11.8 °F 45% 29.91 in 10.0 mi NW 25.3 mph 34.5 mph N/A   Scattered Clouds
3:55 PM 32.0 °F 20.1 °F 12.2 °F 44% 29.92 in 10.0 mi NW 19.6 mph 29.9 mph N/A   Scattered Clouds
4:15 PM 32.0 °F 19.5 °F 11.8 °F 43% 29.92 in 10.0 mi NW 21.9 mph 36.8 mph N/A   Scattered Clouds
4:35 PM 32.4 °F 20.0 °F 11.7 °F 42% 29.92 in 10.0 mi NW 21.9 mph 34.5 mph N/A   Scattered Clouds
4:55 PM 32.9 °F 20.4 °F 11.8 °F 42% 29.93 in 10.0 mi WNW 23.0 mph 32.2 mph N/A   Scattered Clouds
5:15 PM 33.3 °F 20.3 °F 12.2 °F 42% 29.93 in 10.0 mi NW 25.3 mph 33.4 mph N/A   Clear
5:35 PM 33.1 °F 22.2 °F 11.7 °F 41% 29.93 in 10.0 mi NW 17.3 mph 28.8 mph N/A   Clear
5:55 PM 33.1 °F 20.9 °F 11.7 °F 41% 29.93 in 10.0 mi NW 21.9 mph 29.9 mph N/A   Clear
6:15 PM 32.9 °F 21.0 °F 10.8 °F 40% 29.94 in 10.0 mi NW 20.7 mph 27.6 mph N/A   Scattered Clouds
6:35 PM 32.7 °F 21.4 °F 10.9 °F 40% 29.95 in 10.0 mi NW 18.4 mph 26.5 mph N/A   Clear
6:55 PM 32.2 °F 20.4 °F 10.9 °F 41% 29.95 in 10.0 mi NW 19.6 mph 26.5 mph N/A   Clear
7:15 PM 31.8 °F 21.4 °F 11.8 °F 44% 29.96 in 10.0 mi NW 15.0 mph 18.4 mph N/A   Clear
7:35 PM 30.7 °F 20.4 °F 11.8 °F 46% 29.97 in 10.0 mi NW 13.8 mph 19.6 mph N/A   Clear
7:55 PM 29.8 °F 21.5 °F 12.7 °F 49% 29.98 in 10.0 mi NW 9.2 mph 16.1 mph N/A   Clear
8:15 PM 29.1 °F 21.3 °F 13.1 °F 51% 29.98 in 10.0 mi NW 8.1 mph - N/A   Clear
8:35 PM 28.2 °F 20.2 °F 13.8 °F 55% 30.00 in 10.0 mi NW 8.1 mph - N/A   Clear
8:55 PM 27.3 °F 19.9 °F 14.0 °F 57% 30.00 in 10.0 mi NNW 6.9 mph - N/A   Clear
9:15 PM 26.2 °F 18.6 °F 14.2 °F 60% 30.00 in 10.0 mi NW 6.9 mph - N/A   Clear
9:35 PM 25.7 °F 20.1 °F 14.4 °F 62% 30.00 in 10.0 mi NW 4.6 mph - N/A   Clear
9:55 PM 24.8 °F 16.1 °F 13.6 °F 63% 30.00 in 10.0 mi North 8.1 mph - N/A   Clear
10:15 PM 23.9 °F 18.0 °F 14.5 °F 67% 29.98 in 10.0 mi North 4.6 mph - N/A   Clear
10:55 PM 21.7 °F 14.3 °F 14.7 °F 74% 30.03 in 10.0 mi NW 5.8 mph - N/A   Clear
11:15 PM 21.4 °F 15.1 °F 14.0 °F 73% 30.03 in 10.0 mi NNW 4.6 mph - N/A   Clear
11:35 PM 20.5 °F - 13.8 °F 75% 30.03 in 10.0 mi Calm Calm - N/A   Clear
11:55 PM 19.0 °F - 14.5 °F 83% 30.04 in 10.0 mi Calm Calm - N/A   Clear